EW4022 Weather Reports


Display with metric or nautical units.
time (UTC)temp
F
wind
direction
speed
MPH
gust
MPH
rain 1hr
in
rain 24hr
in
rain mn
in
humidity
%
barometer
mb
20260507115517 59 257 0.0 2.0 0.00 0.07 0.00 84 971.9
20260507115017 60 258 0.0 2.0 0.00 0.07 0.00 86 972.0
20260507114519 60 258 0.0 0.0 0.00 0.07 0.00 86 971.9
20260507114016 59 258 0.0 1.0 0.00 0.07 0.00 86 971.9
20260507113517 59 258 0.0 1.0 0.00 0.07 0.00 86 971.9
20260507113015 59 258 0.0 2.0 0.00 0.07 0.00 87 971.9
20260507112515 58 258 0.0 2.0 0.00 0.07 0.00 87 971.7
20260507112014 58 258 0.0 3.0 0.00 0.07 0.00 88 971.4
20260507111513 58 258 0.0 3.0 0.00 0.07 0.00 88 971.5
20260507111013 58 258 0.0 0.0 0.00 0.07 0.00 88 971.4
20260507110512 59 258 0.0 0.0 0.00 0.07 0.00 88 971.3
20260507110012 59 258 0.0 0.0 0.00 0.07 0.00 88 971.1
20260507105511 59 258 0.0 0.0 0.00 0.07 0.00 88 971.2
20260507105011 59 258 0.0 0.0 0.00 0.07 0.00 88 971.3
20260507104511 59 258 0.0 0.0 0.00 0.07 0.00 88 971.1
20260507104011 59 258 0.0 0.0 0.00 0.07 0.00 88 971.2
20260507103510 59 258 0.0 0.0 0.00 0.07 0.00 88 971.2
20260507103010 59 258 0.0 3.0 0.00 0.07 0.00 88 971.1
20260507102510 59 258 0.0 2.0 0.00 0.07 0.00 88 971.3
20260507102010 59 258 0.0 2.0 0.00 0.07 0.00 88 971.1
20260507101509 59 258 0.0 2.0 0.00 0.07 0.00 89 971.3
20260507101012 59 258 0.0 4.0 0.00 0.07 0.00 89 971.1
20260507100508 59 258 0.0 4.0 0.00 0.07 0.00 89 971.1
20260507100009 59 265 0.0 0.0 0.00 0.07 0.00 89 971.1
20260507095508 59 265 0.0 0.0 0.00 0.07 0.00 89 971.2
20260507095008 59 265 0.0 2.0 0.00 0.07 0.00 89 971.0
20260507094507 59 265 0.0 2.0 0.00 0.07 0.00 89 971.1
20260507094007 59 265 0.0 1.0 0.00 0.07 0.00 90 971.4
20260507093507 59 265 0.0 0.0 0.00 0.07 0.00 90 971.1
20260507093006 59 265 0.0 0.0 0.00 0.07 0.00 90 971.0
20260507092512 59 265 0.0 0.0 0.00 0.07 0.00 90 971.2
20260507092009 59 265 0.0 1.0 0.00 0.07 0.00 91 971.3
20260507091507 59 265 0.0 1.0 0.00 0.07 0.00 91 971.3
20260507091005 59 265 0.0 2.0 0.00 0.07 0.00 91 971.0
20260507090507 59 265 1.0 4.0 0.00 0.07 0.00 92 970.8
20260507090004 59 265 1.0 4.0 0.00 0.07 0.00 92 970.7
20260507085503 60 268 0.0 1.0 0.00 0.07 0.00 92 970.3
20260507085001 60 268 0.0 2.0 0.00 0.07 0.00 92 970.6
20260507084602 61 268 0.0 2.0 0.00 0.07 0.00 93 970.8
20260507084059 61 268 0.0 2.0 0.00 0.07 0.00 93 970.7
20260507083559 61 268 0.0 2.0 0.00 0.07 0.00 93 970.8
20260507083119 61 268 0.0 3.0 0.00 0.07 0.00 93 971.1
20260507082559 61 268 0.0 3.0 0.00 0.07 0.00 93 971.0
20260507082059 61 268 0.0 0.0 0.00 0.07 0.00 93 971.0
20260507081604 61 268 0.0 0.0 0.00 0.07 0.00 93 970.9
20260507081059 61 268 0.0 0.0 0.00 0.07 0.00 93 970.9
20260507080557 61 268 0.0 0.0 0.00 0.07 0.00 93 971.0
20260507080058 61 268 0.0 0.0 0.00 0.07 0.00 92 971.0
20260507075557 61 268 0.0 0.0 0.00 0.07 0.00 92 971.0
20260507075057 61 268 0.0 0.0 0.00 0.07 0.00 92 970.8
20260507074611 61 268 0.0 0.0 0.00 0.07 0.00 92 970.9
20260507074057 61 268 0.0 0.0 0.00 0.07 0.00 92 970.8
20260507073556 61 268 0.0 0.0 0.00 0.07 0.00 92 971.0
20260507073101 61 268 0.0 2.0 0.00 0.07 0.00 92 970.9
20260507072555 61 268 0.0 2.0 0.00 0.07 0.00 92 970.8
20260507072054 61 268 0.0 3.0 0.00 0.07 0.00 93 971.0
20260507071554 61 269 0.0 2.0 0.00 0.07 0.00 93 970.6
20260507071053 61 269 0.0 2.0 0.00 0.07 0.00 92 970.8
20260507070554 62 269 0.0 0.0 0.00 0.07 0.00 92 970.8
20260507070052 62 269 0.0 0.0 0.00 0.07 0.00 93 970.5
20260507065551 62 269 0.0 3.0 0.00 0.07 0.00 93 970.5
20260507065051 62 269 0.0 3.0 0.00 0.07 0.00 93 970.5
20260507064551 62 268 0.0 3.0 0.00 0.07 0.00 93 970.7
20260507064052 62 268 1.0 3.0 0.00 0.07 0.00 93 970.5
20260507063549 63 268 0.0 2.0 0.00 0.07 0.00 93 970.9
20260507063051 63 268 0.0 1.0 0.00 0.07 0.00 93 971.0
20260507062549 63 268 0.0 1.0 0.00 0.07 0.00 93 970.9
20260507062048 63 268 0.0 2.0 0.00 0.07 0.00 93 970.7
20260507061548 63 268 0.0 2.0 0.00 0.07 0.00 93 970.7
20260507061048 63 268 0.0 2.0 0.00 0.07 0.00 93 970.6
20260507060546 63 268 0.0 0.0 0.00 0.07 0.00 93 970.4
20260507060045 63 268 0.0 0.0 0.00 0.07 0.00 93 970.5
20260507055545 63 268 0.0 2.0 0.00 0.07 0.00 93 970.6
20260507055044 63 268 0.0 2.0 0.00 0.07 0.00 93 970.8
20260507054546 63 268 0.0 2.0 0.00 0.07 0.00 93 971.1
20260507054045 63 268 0.0 2.0 0.00 0.07 0.00 93 971.0
20260507053544 63 268 0.0 2.0 0.00 0.07 0.00 93 971.0
20260507053045 63 268 0.0 1.0 0.00 0.07 0.00 93 971.3
20260507052544 63 268 0.0 4.0 0.00 0.07 0.00 93 971.1
20260507052044 63 268 0.0 4.0 0.00 0.07 0.00 93 971.3
20260507051543 63 222 1.0 4.0 0.00 0.07 0.00 93 971.4
20260507051041 63 221 0.0 0.0 0.00 0.07 0.00 92 971.2
20260507050544 63 221 0.0 0.0 0.00 0.07 0.00 92 971.0
20260507050041 63 221 0.0 0.0 0.00 0.07 0.00 92 970.8
20260507045539 63 221 0.0 0.0 0.00 0.07 0.00 92 970.9
20260507045040 63 221 0.0 0.0 0.00 0.07 0.00 92 970.8
20260507044541 63 221 0.0 0.0 0.00 0.07 0.00 92 970.8
20260507044038 63 221 0.0 0.0 0.00 0.07 0.00 92 970.7
20260507043539 63 221 0.0 0.0 0.00 0.07 0.00 92 970.5
20260507043041 63 221 0.0 0.0 0.00 0.07 0.00 91 970.5
20260507042537 63 221 0.0 0.0 0.00 0.07 0.00 91 970.7
20260507042039 63 221 0.0 0.0 0.00 0.07 0.00 91 970.8
20260507041543 64 221 0.0 0.0 0.00 0.07 0.00 91 970.9
20260507041040 64 221 0.0 0.0 0.00 0.07 0.00 91 970.9
20260507040534 64 221 0.0 0.0 0.00 0.07 0.00 91 971.0
20260507040033 64 221 0.0 0.0 0.00 0.07 0.00 90 970.9
20260507035532 64 221 0.0 0.0 0.00 0.07 0.07 90 970.8
20260507035036 64 221 0.0 0.0 0.00 0.07 0.07 90 970.7
20260507034533 64 221 0.0 0.0 0.01 0.07 0.07 90 970.8
20260507034031 64 221 0.0 2.0 0.01 0.07 0.07 90 970.9
20260507033532 65 221 0.0 2.0 0.01 0.07 0.07 89 971.3
20260507033034 65 221 0.0 3.0 0.02 0.07 0.07 89 971.4
20260507032533 65 221 0.0 3.0 0.02 0.07 0.07 89 971.6
20260507032031 65 221 0.0 2.0 0.02 0.07 0.07 89 971.9
20260507031531 65 221 0.0 8.0 0.03 0.07 0.07 89 972.1
20260507031032 65 221 2.0 8.0 0.03 0.07 0.07 89 972.3
20260507030531 65 5 1.0 3.0 0.03 0.07 0.07 89 972.2
20260507030031 65 13 1.0 3.0 0.03 0.07 0.07 89 972.3
20260507025530 65 15 0.0 5.0 0.04 0.07 0.07 89 972.1
20260507025030 65 16 0.0 5.0 0.04 0.07 0.07 89 972.1
20260507024530 65 209 1.0 5.0 0.04 0.06 0.06 88 971.9
20260507024030 65 206 2.0 5.0 0.04 0.06 0.06 88 972.1
20260507023539 65 246 0.0 2.0 0.04 0.06 0.06 87 971.9
20260507023029 65 246 0.0 2.0 0.03 0.05 0.05 86 971.2
20260507022531 65 246 0.0 3.0 0.03 0.05 0.05 86 971.8
20260507022029 65 246 0.0 5.0 0.03 0.05 0.05 85 972.0
20260507021528 66 244 1.0 4.0 0.02 0.04 0.04 85 972.0
20260507021030 66 242 2.0 4.0 0.02 0.04 0.04 84 971.8
20260507020528 66 223 0.0 5.0 0.02 0.04 0.04 83 971.1
20260507020028 67 223 1.0 5.0 0.02 0.04 0.04 83 971.0
20260507015527 68 246 1.0 5.0 0.01 0.03 0.03 82 971.1
20260507015027 68 236 2.0 5.0 0.01 0.03 0.03 81 971.3
20260507014539 69 205 1.0 6.0 0.00 0.02 0.02 80 971.1
20260507014028 69 30 3.0 6.0 0.00 0.02 0.02 80 970.8
20260507013527 68 107 0.0 6.0 0.00 0.02 0.02 81 971.0
20260507013027 68 5 2.0 4.0 0.00 0.02 0.02 83 970.4
20260507012530 68 28 0.0 3.0 0.00 0.02 0.02 83 970.6
20260507012027 68 28 0.0 1.0 0.00 0.02 0.02 82 970.8
20260507011528 68 28 0.0 1.0 0.00 0.02 0.02 82 970.8
20260507011026 68 28 0.0 2.0 0.00 0.02 0.02 82 971.0
20260507010526 68 28 0.0 2.0 0.00 0.02 0.02 81 971.0
20260507010026 68 28 0.0 2.0 0.00 0.02 0.02 81 971.1
20260507005528 68 28 0.0 2.0 0.00 0.02 0.02 80 971.2
20260507005026 68 28 0.0 1.0 0.00 0.02 0.02 80 971.0
20260507004534 69 28 0.0 0.0 0.00 0.02 0.02 78 970.9
20260507004026 69 28 0.0 2.0 0.00 0.02 0.02 78 970.9
20260507003526 69 28 0.0 2.0 0.00 0.02 0.02 77 970.9
20260507003031 69 28 0.0 1.0 0.00 0.02 0.02 77 970.7
20260507002525 70 28 0.0 1.0 0.00 0.02 0.02 77 970.4
20260507002025 70 28 0.0 2.0 0.00 0.02 0.02 76 970.5
20260507001526 70 28 0.0 2.0 0.00 0.02 0.02 75 970.6
20260507001024 70 28 0.0 2.0 0.00 0.02 0.02 74 970.7
20260507000524 71 28 1.0 2.0 0.00 0.02 0.02 73 970.4
20260507000027 72 28 0.0 0.0 0.00 0.02 0.02 72 969.9
20260506235525 72 28 0.0 2.0 0.00 0.02 0.02 72 970.1
20260506235024 73 28 0.0 4.0 0.00 0.02 0.02 70 970.2
20260506234534 73 28 0.0 8.0 0.00 0.02 0.02 70 969.8
20260506234023 73 28 1.0 8.0 0.00 0.02 0.02 70 970.1
20260506233523 73 246 0.0 3.0 0.00 0.02 0.02 69 970.3
20260506233023 73 246 1.0 3.0 0.00 0.02 0.02 69 970.3
20260506232522 74 247 0.0 2.0 0.00 0.02 0.02 70 970.4
20260506232022 74 247 0.0 2.0 0.00 0.02 0.02 69 970.3
20260506231532 74 247 0.0 4.0 0.00 0.02 0.02 68 970.3
20260506231022 74 271 0.0 4.0 0.00 0.02 0.02 68 970.2
20260506230522 74 271 0.0 3.0 0.00 0.02 0.02 68 970.1
20260506230021 74 271 0.0 3.0 0.00 0.02 0.02 69 969.9
20260506225522 74 271 0.0 6.0 0.00 0.02 0.02 67 970.2
20260506225020 74 271 0.0 6.0 0.00 0.02 0.02 67 970.3
20260506224520 75 25 1.0 4.0 0.00 0.02 0.02 68 970.5
20260506224020 74 25 2.0 4.0 0.00 0.02 0.02 68 970.5
20260506223520 74 271 0.0 4.0 0.00 0.02 0.02 68 970.5
20260506223029 74 271 0.0 4.0 0.00 0.02 0.02 67 970.7
20260506222519 74 267 0.0 4.0 0.00 0.02 0.02 68 970.6
20260506222020 74 20 1.0 6.0 0.00 0.02 0.02 67 970.5
20260506221518 74 269 2.0 6.0 0.00 0.02 0.02 68 970.4
20260506221019 74 196 1.0 8.0 0.00 0.02 0.02 68 970.3
20260506220521 74 271 1.0 8.0 0.00 0.02 0.02 67 970.3
20260506220023 74 13 1.0 4.0 0.00 0.02 0.02 68 970.4
20260506215523 74 275 1.0 4.0 0.00 0.02 0.02 68 970.5
20260506215017 74 223 0.0 7.0 0.00 0.02 0.02 68 970.4
20260506214517 74 105 1.0 7.0 0.00 0.02 0.02 69 970.1
20260506214017 74 261 2.0 6.0 0.00 0.02 0.02 69 970.2
20260506213520 75 267 1.0 6.0 0.00 0.02 0.02 69 970.2
20260506213016 75 239 1.0 8.0 0.00 0.02 0.02 70 970.1
20260506212516 75 17 1.0 8.0 0.00 0.02 0.02 69 970.1
20260506212016 75 270 3.0 8.0 0.00 0.02 0.02 69 970.1
20260506211516 74 273 2.0 6.0 0.00 0.02 0.02 69 970.2
20260506211015 75 219 2.0 6.0 0.00 0.02 0.02 70 970.2
20260506210515 75 44 2.0 6.0 0.00 0.02 0.02 69 970.2
20260506210016 75 271 1.0 6.0 0.00 0.02 0.02 70 970.1
20260506205514 75 15 2.0 8.0 0.00 0.02 0.02 70 970.1
20260506205015 75 32 3.0 8.0 0.00 0.02 0.02 70 970.0
20260506204514 75 270 2.0 8.0 0.00 0.02 0.02 70 970.1
20260506204013 75 26 3.0 8.0 0.00 0.02 0.02 70 970.1
20260506203513 74 270 2.0 10.0 0.00 0.02 0.02 70 970.0
20260506203022 75 360 3.0 11.0 0.00 0.02 0.02 70 970.1
20260506202513 75 259 4.0 11.0 0.00 0.02 0.02 70 970.3
20260506202012 75 270 2.0 8.0 0.00 0.02 0.02 71 970.2
20260506201525 75 21 1.0 6.0 0.00 0.02 0.02 70 970.2
20260506201010 75 17 2.0 10.0 0.00 0.02 0.02 72 970.2
20260506200510 74 13 3.0 10.0 0.00 0.02 0.02 72 970.1
20260506200012 74 182 2.0 8.0 0.00 0.02 0.02 71 970.3
20260506195510 74 275 3.0 8.0 0.00 0.02 0.02 72 970.3
20260506195011 74 271 2.0 8.0 0.00 0.02 0.02 72 970.2
20260506194509 74 15 1.0 6.0 0.00 0.02 0.02 74 970.4
20260506194008 73 360 2.0 6.0 0.00 0.02 0.02 75 970.6
20260506193507 73 47 1.0 5.0 0.00 0.02 0.02 76 970.6
20260506193007 72 268 2.0 8.0 0.00 0.02 0.02 75 970.6
20260506192507 73 261 2.0 8.0 0.00 0.02 0.02 75 970.8
20260506192006 72 248 1.0 4.0 0.00 0.02 0.02 76 970.8
20260506191505 72 5 2.0 9.0 0.00 0.02 0.02 76 970.7
20260506191007 72 270 5.0 9.0 0.00 0.02 0.02 76 970.6
20260506190507 71 12 2.0 11.0 0.00 0.02 0.02 77 970.7
20260506190003 71 34 4.0 11.0 0.00 0.02 0.02 78 970.8
20260506185502 70 46 3.0 9.0 0.00 0.02 0.02 78 970.8
20260506185002 70 12 2.0 9.0 0.00 0.02 0.02 79 971.0
20260506184502 70 273 2.0 8.0 0.00 0.02 0.02 78 971.0
20260506184004 70 10 2.0 6.0 0.00 0.02 0.02 79 970.9
20260506183501 70 21 2.0 7.0 0.00 0.02 0.02 79 970.8
20260506183105 70 242 1.0 6.0 0.00 0.02 0.02 79 971.0
20260506182559 69 258 1.0 6.0 0.00 0.02 0.02 79 970.9
20260506182059 69 252 2.0 6.0 0.00 0.02 0.02 80 970.8
20260506181557 69 28 1.0 5.0 0.00 0.02 0.02 81 970.9
20260506181056 68 223 1.0 4.0 0.00 0.02 0.02 83 971.0
20260506180555 67 261 1.0 4.0 0.00 0.02 0.02 83 971.1
20260506180055 67 259 1.0 4.0 0.00 0.02 0.02 84 971.1
20260506175553 67 202 1.0 5.0 0.00 0.02 0.02 85 971.1
20260506175053 67 202 2.0 5.0 0.00 0.02 0.02 85 970.3
20260506174553 67 18 1.0 5.0 0.00 0.02 0.02 85 970.4
20260506174054 66 15 1.0 9.0 0.00 0.02 0.02 85 970.7
20260506173556 66 11 2.0 7.0 0.00 0.02 0.02 85 971.2
20260506173054 66 16 1.0 5.0 0.00 0.02 0.02 85 971.4
20260506172556 66 31 2.0 8.0 0.00 0.02 0.02 85 971.6
20260506172052 66 13 3.0 8.0 0.00 0.02 0.02 85 971.8
20260506171554 66 360 1.0 7.0 0.00 0.02 0.02 85 971.9
20260506171057 67 271 2.0 6.0 0.00 0.02 0.02 84 972.1
20260506170552 67 22 2.0 8.0 0.00 0.02 0.02 84 972.1
20260506170108 67 22 2.0 8.0 0.00 0.02 0.02 83 972.1
20260506165553 67 11 3.0 7.0 0.00 0.02 0.02 83 972.2
20260506165051 67 18 0.0 5.0 0.00 0.02 0.02 82 972.3
20260506164551 67 22 0.0 5.0 0.00 0.02 0.02 81 972.3
20260506164050 67 22 1.0 10.0 0.00 0.02 0.02 81 972.4
20260506163553 67 43 2.0 10.0 0.00 0.02 0.02 80 972.4
20260506163100 67 270 2.0 10.0 0.00 0.02 0.02 81 972.6
20260506162548 67 28 2.0 6.0 0.00 0.02 0.02 81 972.6
20260506162049 66 5 2.0 6.0 0.00 0.02 0.02 80 972.6
20260506161548 66 271 2.0 9.0 0.00 0.02 0.02 80 972.5
20260506161047 66 271 2.0 9.0 0.00 0.02 0.02 80 972.5
20260506160548 66 28 1.0 5.0 0.00 0.02 0.02 80 972.5
20260506160048 67 15 1.0 6.0 0.00 0.02 0.02 80 972.1
20260506155547 67 15 2.0 7.0 0.00 0.02 0.02 80 972.2
20260506155051 66 13 1.0 8.0 0.00 0.02 0.02 81 972.2
20260506154546 66 271 3.0 8.0 0.00 0.02 0.02 82 972.2
20260506154045 66 271 3.0 6.0 0.00 0.02 0.02 82 972.1
20260506153544 65 259 1.0 6.0 0.00 0.02 0.02 83 972.0
20260506153044 65 184 1.0 6.0 0.00 0.02 0.02 83 972.0
20260506152542 65 13 2.0 6.0 0.00 0.02 0.02 83 972.1
20260506152042 65 272 1.0 6.0 0.00 0.02 0.02 83 972.1
20260506151544 65 252 0.0 6.0 0.00 0.02 0.02 83 972.0
20260506151046 65 257 2.0 8.0 0.00 0.02 0.02 83 972.0
20260506150542 65 20 3.0 8.0 0.00 0.02 0.02 84 971.9
20260506150041 64 275 2.0 8.0 0.00 0.02 0.02 84 972.0
20260506145544 64 250 2.0 7.0 0.00 0.02 0.02 84 972.3
20260506145042 64 49 1.0 5.0 0.00 0.02 0.02 85 972.5
20260506144550 64 360 1.0 5.0 0.01 0.02 0.02 85 972.2
20260506144039 64 265 0.0 4.0 0.01 0.02 0.02 86 972.1
20260506143539 64 271 1.0 4.0 0.01 0.02 0.02 87 972.1
20260506143038 64 271 1.0 4.0 0.01 0.02 0.02 87 972.1
20260506142537 63 22 0.0 5.0 0.01 0.02 0.02 87 972.2
20260506142035 63 22 2.0 5.0 0.02 0.02 0.02 87 972.4
20260506141535 63 179 0.0 4.0 0.02 0.02 0.02 87 972.5
20260506141035 63 209 1.0 5.0 0.02 0.02 0.02 86 972.3
20260506140537 63 273 0.0 4.0 0.02 0.02 0.02 87 972.1
20260506140035 63 273 1.0 8.0 0.02 0.02 0.02 87 972.1
20260506135534 62 189 1.0 8.0 0.02 0.02 0.02 87 972.2
20260506135034 62 221 1.0 5.0 0.02 0.02 0.02 87 972.4
20260506134533 62 30 0.0 4.0 0.01 0.01 0.01 87 972.3
20260506134035 63 32 0.0 4.0 0.01 0.01 0.01 88 972.4
20260506133534 62 32 0.0 3.0 0.01 0.01 0.01 87 972.2
20260506133033 63 32 0.0 1.0 0.01 0.01 0.01 87 972.1
20260506132533 63 32 0.0 1.0 0.01 0.01 0.01 87 972.1
20260506132037 63 32 0.0 0.0 0.00 0.00 0.00 86 972.0
20260506131536 63 32 0.0 0.0 0.00 0.00 0.00 87 971.9
20260506131032 63 32 0.0 0.0 0.00 0.00 0.00 86 972.0
20260506130533 62 32 0.0 0.0 0.00 0.00 0.00 86 971.9
20260506130034 62 32 0.0 1.0 0.00 0.00 0.00 86 972.0
20260506125532 62 36 0.0 1.0 0.00 0.00 0.00 86 971.8
20260506125032 63 32 0.0 0.0 0.00 0.00 0.00 86 971.8
20260506124532 63 32 0.0 0.0 0.00 0.00 0.00 87 971.9
20260506124032 62 32 0.0 0.0 0.00 0.00 0.00 87 971.9
20260506123532 62 32 0.0 0.0 0.00 0.00 0.00 87 971.9
20260506123033 62 32 0.0 0.0 0.00 0.00 0.00 87 971.8
20260506122531 62 32 0.0 0.0 0.00 0.00 0.00 87 971.8
20260506122031 62 32 0.0 0.0 0.00 0.00 0.00 87 971.7
20260506121530 62 32 0.0 0.0 0.00 0.00 0.00 87 971.6
20260506121030 61 32 0.0 0.0 0.00 0.00 0.00 87 971.4
20260506120530 61 32 0.0 0.0 0.00 0.00 0.00 87 971.4
20260506120039 61 32 0.0 0.0 0.00 0.00 0.00 86 971.4